Regional Weather Roundup
Issued by NWS

Home | Current Version | Previous Version | Text Only | Print | Product List | Glossary Off
Versions: 1 2 3 4 5 6 7 8 9 10 11 12 13 14 15 16 17 18 19 20 21 22 23 24 25 26 27

000
ASUS45 KBOU 221007
RWRCO

WEATHER ROUNDUP FOR COLORADO
NATIONAL WEATHER SERVICE DENVER/BOULDER CO
400 AM MDT TUE AUG 22 2017

NOTE: "FAIR" INDICATES FEW OR NO CLOUDS BELOW 12000 FEET WITH NO
SIGNIFICANT WEATHER AND/OR OBSTRUCTIONS TO VISIBILITY.

COZ001>005-013-030-031-221100-
...NORTHWEST COLORADO...

CITY           SKY/WX    TMP DP  RH WIND       PRES   REMARKS
CRAIG          FAIR      47  37  68 CALM      30.32R
HAYDEN         FAIR      54  36  50 E8        30.34R
MEEKER         FAIR      49  37  63 NE7       30.33R
RABBIT EARS PA FAIR      46  36  66 SE3       30.62R
STEAMBOAT SPGS FAIR      49  36  60 N5        30.35S
WALDEN         FAIR      39  34  81 SE5       30.46S
$$

COZ006>008-011-221100-
...WEST CENTRAL VALLEYS...

CITY           SKY/WX    TMP DP  RH WIND       PRES   REMARKS
GRAND JUNCTION FAIR      71  45  39 E13       30.20S
MONTROSE       FAIR      59  43  55 S10       30.31S
EAGLE          FAIR      51  39  63 E7        30.39S
RIFLE          FAIR      61  40  45 SW3       30.27S
DELTA          FAIR      62  44  51 NE3       30.26S
NUCLA          FAIR      63  37  39 E10       30.34R
$$

COZ017>023-064>068-221100-
...SOUTHWEST COLORADO...

CITY           SKY/WX    TMP DP  RH WIND       PRES   REMARKS
DURANGO        FAIR      57  47  69 N9        30.35F
CORTEZ         FAIR      56  53  90 SE6       30.31S
PAGOSA SPRINGS FAIR      51  46  82 CALM      30.42F
TELLURIDE      MOCLDY    56  39  52 SE5       30.53S
WOLF CREEK PAS MOCLDY    41  37  87 N6        30.74F
$$

COZ009-010-012-014-032>034-037-058>063-221100-
...CENTRAL COLORADO...

CITY           SKY/WX    TMP DP  RH WIND       PRES   REMARKS
ASPEN          FAIR      53  39  59 SW7       30.42S
BUENA VISTA    FAIR      46  41  85 W3        30.49F
COPPER MTN     FAIR      50  32  50 S12       30.73S
BERTHOUD PASS  FAIR      41  36  81 W8        30.75S
COTTONWOOD PAS FAIR      54  37  54 CALM      30.60S
GUNNISON       FAIR      45  43  93 CALM      30.48S
KREMMLING      FAIR      48  39  71 CALM      30.44S
LEADVILLE      FAIR      38  34  85 E3        30.59S
MONARCH PASS   FAIR      43  34  70 E12       30.81F
SALIDA         FAIR      51  46  83 W3        30.54F
SUNLIGHT       FAIR      50  32  50 S6        30.66S
WILKERSON PASS FAIR      45  34  65 SW5       30.71S
$$

COZ069>075-221100-
...SAN LUIS VALLEY/SANGRE DE CRISTO MOUNTAINS...

CITY           SKY/WX    TMP DP  RH WIND       PRES   REMARKS
ALAMOSA        CLOUDY    52  47  83 VRB5      30.42S
DEL NORTE      FAIR      50  47  87 SW10      30.46F
LA VETA PASS   NOT AVBL
SAGUACHE         N/A     50  46  87 N8        30.46F
$$

COZ035-036-038>040-221100-
...NORTHERN COLORADO FRONT RANGE...

CITY           SKY/WX    TMP DP  RH WIND       PRES   REMARKS
DENVER INTL AP FAIR      58  53  84 SE8       30.32S
DMNS CITY PARK   N/A     62  53  74 E10       30.32R
AURORA         NOT AVBL
FRONT RANGE AP FAIR      61  55  82 SE9       30.33S
ERIE MUNI ARPT CLOUDY    59  50  71 CALM      30.37R
BOULDER MUN AP FAIR      61  48  63 N3        30.32S
CENTENNIAL     FAIR      55  50  83 CALM      30.34S
BROOMFIELD     FAIR      61  48  63 N3        30.34S
FORT COLLINS   CLOUDY    63  49  60 E6        30.32S
LONGMONT       FAIR      58  51  77 NW3       30.33S
$$

COZ041-046-047-076>085-087-088-221100-
...PIKES PEAK/PALMER DIVIDE AND SOUTHERN FOOTHILLS...

CITY           SKY/WX    TMP DP  RH WIND       PRES   REMARKS
COLO. SPRINGS  FAIR      58  52  80 N9        30.36S
A. F. ACADEMY  NOT AVBL
SCHRIEVER AFB  MOCLDY    57  56  96 N8        30.36F FOG
CHEYENNE MTN   NOT AVBL
ELLICOTT       MOCLDY   N/A N/A N/A E6        30.34F
FALCON         FOG       55  54  97 NE7       30.41S VSB 1/4
FORT CARSON    NOT AVBL
LIMON          CLOUDY    60  59  96 E8        30.33R
MONUMENT HILL  FAIR      50  46  87 CALM      30.42S
CANON CITY     PTCLDY    64  52  63 W9        30.31S
WALSENBURG     FAIR      59  52  77 S3        30.33S
TRINIDAD       MOCLDY    59  52  77 NW9       30.32R
$$

COZ042>045-048>051-090-091-221100-
...NORTHEAST COLORADO...

CITY           SKY/WX    TMP DP  RH WIND       PRES   REMARKS
GREELEY ARPT   FAIR      54  50  86 N8        30.31S
AKRON          FAIR      58  56  93 E8        30.28F
BURLINGTON     CLOUDY    65  61  87 NE14      30.24S
WRAY           NOT AVBL
YUMA           NOT AVBL
STERLING       FAIR      55  54  94 N3        30.26S
HOLYOKE        FAIR      59  55  88 NE7       30.25S
FORT MORGAN    CLOUDY    57  53  84 NE5       30.29S
$$

COZ086-089-092>099-221100-
...SOUTHEAST COLORADO...

CITY           SKY/WX    TMP DP  RH WIND       PRES   REMARKS
PUEBLO         FAIR      66  55  67 E3        30.26R
LA JUNTA       MOCLDY    68  64  87 NE8       30.23S
LAMAR          CLOUDY    69  63  81 NE8       30.18S
SPRINGFIELD      N/A     66  66 100 N12       30.20R
$$




USA.gov is the U.S. government's official web portal to all federal, state and local government web resources and services.